Saint David, ME

9:28 AM EST on February 27, 2017 (GMT -0500)
Northern Aroostook Regional

Weather History for KFVE - May, 2014

Change the Weather History Date:

Friday, May 2, 2014

  Actual Average Record
Temperature  
Mean Temperature 47 °F 45 °F  
Max Temperature 55 °F 54 °F 79 °F (2001)
Min Temperature 39 °F 36 °F 28 °F (2008)
Degree Days  
Heating Degree Days 18    
Month to date heating degree days 45  
Since 1 July heating degree days 9467  
Cooling Degree Days 0    
Month to date cooling degree days 0  
Year to date cooling degree days 0  
Moisture  
Dew Point 38 °F    
Average Humidity 78    
Maximum Humidity 100    
Minimum Humidity 47    
Precipitation  
Precipitation T in 0.09 in 0.38 in (2006)
Month to date precipitation 0.22 0.09  
Year to date precipitation 6.82 6.95  
Sea Level Pressure  
Sea Level Pressure 29.55 in    
Wind  
Wind Speed 10 mph (SW)    
Max Wind Speed 23 mph    
Max Gust Speed 29 mph    
Visibility 7 miles    
Events Fog , Rain    
T = Trace of Precipitation, MM = Missing Value Source: NWS Daily Summary

Daily Weather History Graph

Daily Weather History Graph

Search for Another Location

Airport or City:

Trip Planner

Search our weather history database for the weather conditions in past years. The results will help you decide how hot, cold, wet, or windy it might be!

Date:

Astronomy

May. 02, 2014 Rise Set
Actual Time 5:15 AM EDT 7:45 PM EDT
Civil Twilight 4:41 AM EDT 8:20 PM EDT
Nautical Twilight 3:58 AM EDT 9:03 PM EDT
Astronomical Twilight 3:08 AM EDT 9:53 PM EDT
Moon 7:45 AM EDT (5/2) 11:09 PM EDT (5/2)
Length of Visible Light 15h 39m
Length of Day
14h 30m
Waxing Crescent, 12% of the Moon is Illuminated
May 2
Waxing Crescent
May 6
First Quarter
May 14
Full
May 21
Last Quarter
May 28
New

Hourly Weather History & Observations

Time (EDT) Temp. Windchill Dew Point Humidity Pressure Visibility Wind Dir Wind Speed Gust Speed Precip Events Conditions
12:53 AM 39.9 °F 33.4 °F 39.9 °F 100% 29.60 in 0.2 mi South 10.4 mph - N/A Fog Fog
1:53 AM 39.0 °F 34.0 °F 39.0 °F 100% 29.58 in 0.2 mi SSE 6.9 mph - N/A Fog Fog
2:53 AM 39.0 °F 34.0 °F 39.0 °F 100% 29.58 in 0.2 mi South 6.9 mph - N/A Fog Fog
3:53 AM 39.0 °F 33.4 °F 39.0 °F 100% 29.55 in 0.2 mi SSE 8.1 mph - N/A Fog Fog
4:53 AM 39.9 °F 35.1 °F 39.9 °F 100% 29.55 in 0.2 mi South 6.9 mph - N/A Fog Fog
5:53 AM 39.9 °F 35.1 °F 39.9 °F 100% 29.55 in 0.2 mi South 6.9 mph - N/A Fog Fog
6:53 AM 39.0 °F 34.8 °F 39.0 °F 100% 29.54 in 0.2 mi South 5.8 mph - N/A Fog Fog
7:35 AM 39.9 °F 35.8 °F 39.9 °F 100% 29.52 in 1.2 mi South 5.8 mph - N/A   Overcast
7:37 AM 39.9 °F 35.8 °F 39.9 °F 100% 29.52 in 5.0 mi South 5.8 mph - N/A   Overcast
7:53 AM 42.1 °F 37.7 °F 41.0 °F 96% 29.53 in 10.0 mi Variable 6.9 mph - N/A   Mostly Cloudy
8:53 AM 45.0 °F 38.9 °F 39.9 °F 82% 29.52 in 10.0 mi WSW 12.7 mph 18.4 mph N/A   Mostly Cloudy
9:14 AM 46.0 °F 40.6 °F 39.0 °F 76% 29.50 in 10.0 mi WSW 11.5 mph - N/A   Scattered Clouds
9:53 AM 50.0 °F - 37.9 °F 63% 29.52 in 10.0 mi WSW 17.3 mph 25.3 mph N/A   Partly Cloudy
10:53 AM 52.0 °F - 37.0 °F 57% 29.53 in 10.0 mi SW 15.0 mph 28.8 mph N/A   Mostly Cloudy
11:53 AM 51.1 °F - 34.0 °F 52% 29.53 in 10.0 mi WSW 18.4 mph 24.2 mph N/A   Mostly Cloudy
12:53 PM 53.6 °F - 33.8 °F 47% 29.51 in 10.0 mi WSW 16.1 mph 24.2 mph N/A   Overcast
1:53 PM 51.8 °F - 35.6 °F 54% 29.51 in 10.0 mi SW 16.1 mph 23.0 mph N/A   Overcast
2:53 PM 52.0 °F - 37.0 °F 57% 29.52 in 10.0 mi SSW 15.0 mph - N/A   Overcast
3:53 PM 52.0 °F - 35.1 °F 53% 29.53 in 10.0 mi WSW 13.8 mph 19.6 mph N/A   Mostly Cloudy
4:53 PM 51.1 °F - 35.1 °F 54% 29.53 in 10.0 mi SW 11.5 mph - 0.00 in Rain Light Rain
5:53 PM 52.0 °F - 36.0 °F 54% 29.54 in 10.0 mi SW 11.5 mph - 0.00 in   Partly Cloudy
6:53 PM 48.9 °F - 37.9 °F 66% 29.56 in 10.0 mi WSW 10.4 mph - N/A   Clear
7:53 PM 46.9 °F - 37.9 °F 71% 29.57 in 10.0 mi SW 9.2 mph - N/A   Partly Cloudy
8:53 PM 44.1 °F 37.7 °F 37.0 °F 76% 29.60 in 10.0 mi WSW 12.7 mph - N/A   Partly Cloudy
9:53 PM 44.1 °F 39.0 °F 37.9 °F 79% 29.62 in 10.0 mi WNW 9.2 mph - N/A   Overcast
10:53 PM 43.0 °F 40.3 °F 39.0 °F 86% 29.63 in 10.0 mi West 4.6 mph - N/A   Overcast
11:53 PM 42.1 °F 40.2 °F 37.9 °F 85% 29.63 in 10.0 mi WSW 3.5 mph - N/A   Scattered Clouds